Regional Weather Roundup
Issued by NWS Wakefield, VA

Home | Current Version | Previous Version | Text Only | Print | Product List | Glossary Off
Versions: 1 2 3 4 5 6 7 8 9 10 11 12 13 14 15 16 17 18 19 20 21 22 23 24 25 26 27

000
ASUS41 KAKQ 101716
RWRAKQ

REGIONAL WEATHER ROUNDUP
NATIONAL WEATHER SERVICE WAKEFIELD VA
1200 PM EST SAT DEC 10 2016

Note: "fair" indicates few or no clouds below 12,000 feet with no
significant weather and/or obstructions to visibility. * = Denotes
station may not report precipitation (e.g., rain,snow,etc.),
thunder or fog.

VAZ042-051-052>054-056-101800-
NORTHERN VIRGINIA

CITY           SKY/WX    TMP DP  RH WIND       PRES   REMARKS
WASH NATIONAL  MOSUNNY   37  13  37 NW14      30.49F
DULLES         PTSUNNY   34  11  38 NW14      30.48F WCI  25
FORT BELVOIR   NOT AVBL
QUANTICO       SUNNY     37  12  35 N9        30.50F
FREDERICKSBRG* SUNNY     36  16  43 NW9       30.49F
STAFFORD*      SUNNY     35  13  39 W7        30.53F
WARRENTON      SUNNY     37   4  24 CALM      30.48F
CULPEPER*      MOSUNNY   35  12  38 CALM      30.50F
MANASSAS*      MOSUNNY  N/A N/A N/A NW6       30.50F
LEESBURG*      MOSUNNY   34  19  55 W13G20    30.48F WCI  25
WINCHESTER     MOSUNNY   32  12  43 NW15      30.46F WCI  22
FRONT ROYAL*   FAIR      32  12  43 W6        30.46F
LURAY*         FAIR      32  18  55 W6        30.46F
$$

VAZ048-049-060>072-079>083-101800-
CENTRAL AND SOUTH CENTRAL VIRGINIA

CITY           SKY/WX    TMP DP  RH WIND       PRES   REMARKS
RICHMOND       MOSUNNY   36  12  37 W7        30.50F
CHESTERFIELD*  FAIR      37   7  28 SW5       30.51F
PETERSBURG*    SUNNY     36  11  35 SW8       30.51F
HANOVER        SUNNY     36  13  38 MISG      30.51F
TAPPAHANNOCK*  SUNNY     37   7  28 N3        30.49F
QUINTON*       FAIR      36  15  42 W5        30.49F
CHARLOTTSVILLE MOSUNNY   36  12  37 SW6       30.47F
GORDONSVILLE*  FAIR      35  13  40 SW8       30.47F
ORANGE*          N/A     36  14  41 S8        30.49F
LOUISA*        SUNNY     37  18  44 W7        30.47F
BUMPASS*       FAIR      34  13  42 SW8       30.49F
FARMVILLE*     SUNNY     36  16  44 W3        30.49F
CREWE*         FAIR      34  14  42 W5        30.50F
FORT PICKETT*  FAIR      35   6  30 W10       30.49F
CHASE CITY*    FAIR      33  12  41 W5        30.50F
CLARKSVILLE*   FAIR      34  16  47 NW5       30.51F
SOUTH HILL*    SUNNY     33  14  45 W5        30.56F
LAWRENCEVILLE* FAIR      36  13  39 SW6       30.50F
EMPORIA*       SUNNY     34  14  44 SW5       30.52F
$$

VAZ088>098-101800-
SOUTHEAST VIRGINIA

CITY           SKY/WX    TMP DP  RH WIND       PRES   REMARKS
NORFOLK        SUNNY     39  19  44 N6        30.48F
VIRGINIA BEACH MOSUNNY   39  20  46 N12       30.48F
NORFOLK NAVAL  MOSUNNY   38  15  39 W8        30.50F
WEST POINT*    SUNNY     38  12  34 SW9       30.51F
SALUDA*        FAIR      36  17  46 NW8       30.49F
NEWPORT NEWS   SUNNY     39  16  39 SW7       30.49F
LANGLEY AFB    SUNNY     38  16  40 CALM      30.48F
FORT EUSTIS    SUNNY     40  15  36 VRB5      30.47F
WILLIAMSBURG*  SUNNY     41  18  38 W7        30.50F
HR EXEC AP*    FAIR      37  18  44 W6        30.49F
FRANKLIN*      SUNNY     36  16  43 W5        30.52F
US460-WAKEFLD  SUNNY     37  16  42 CALM      30.50F
$$

VAZ020-022-025-037-045-101800-
WEST CENTRAL AND SOUTHWEST VIRGINIA

CITY           SKY/WX    TMP DP  RH WIND       PRES   REMARKS
STAUNTON*      MOSUNNY   30  12  47 S3        30.46F
WAYNESBORO*    FAIR      29  10  44 W8        30.43F
HOT SPRINGS VA MOSUNNY   19   7  58 W9        30.27F
LYNCHBURG      CLOUDY    32  13  45 SW6       30.49F
DANVILLE       SUNNY     34  14  43 W5        30.51F
SOUTH BOSTON*  FAIR      34  12  39 W3        30.52F
MARTINSVILLE   SUNNY     34  12  41 S6        30.51F
ROANOKE        MOSUNNY   33  12  41 VRB3      30.48F
BLACKSBURG     SUNNY     29  14  52 W6        30.46F
DUBLIN*        SUNNY     31  14  48 W12       30.45F WCI  22
MARION*        SUNNY     28  15  58 W9        30.46F
HILLSVILLE*    SUNNY     28  13  52 CALM      30.38F
RICHLANDS*     FAIR      24  16  70 CALM      30.44F
WISE*          SUNNY     28  14  54 CALM      30.43F
ABINGDON*      SUNNY     31  16  54 W3        30.48F
$$

MDZ021>025-VAZ099-100-101800-
SOUTHERN MARYLAND AND THE DELMARVA PENINSULA

CITY           SKY/WX    TMP DP  RH WIND       PRES   REMARKS
PATUXENT RIVER SUNNY     37  16  42 NW12      30.47F
BAY BRIDGE APT SUNNY     37  18  44 W7        30.46F
LEONARDTOWN    SUNNY     36  14  41 W7        30.48F
DOVER          SUNNY     37  20  50 W13       30.42F
GEORGETOWN     SUNNY     37  18  46 NW8       30.45F
EASTON         SUNNY     37  18  44 N9        30.48F
CAMBRIDGE      SUNNY     34  19  55 NW8       30.46F
SALISBURY      SUNNY     37  19  48 W6G17     30.45F
OCEAN CITY     SUNNY     38  20  48 NW7       30.45F
WALLOPS ISLAND SUNNY     37  20  50 W6        30.46F
ACCOMACK*      SUNNY     38  22  54 NW7       30.47F
$$

NCZ012>017-030>032-101800-
NORTH CENTRAL AND EASTERN NORTH CAROLINA

CITY           SKY/WX    TMP DP  RH WIND       PRES   REMARKS
ROANOKE RAPIDS FAIR      36  18  48 CALM      30.52F
RALEIGH        SUNNY     38  12  34 CALM      30.53F
ELIZABETH CITY SUNNY     40  20  44 N6        30.50F
AHOSKIE*       SUNNY     36  16  44 CALM      30.52F
EDENTON*       SUNNY     40  19  42 CALM      30.52F
CURRITUCK*     SUNNY     39  18  43 W8        30.50F
KILL DEVIL HLS SUNNY     40  26  56 NW5       30.48F
MANTEO         SUNNY     39  18  42 N6        30.50F
CAPE HATTERAS  SUNNY     43  20  39 VRB5      30.49F
TARBORO*       NOT AVBL
GOLDSBORO      SUNNY     39  15  38 W7        30.51F
WASHINGTON     SUNNY     39  17  40 N3        30.52F
GREENVILLE     SUNNY     36  18  48 NE5       30.53F
NEW BERN       SUNNY     40  19  43 VRB3      30.53F
WILMINGTON     SUNNY     42  18  37 CALM      30.52F
$$

VAZ048-101800-
ELSEWHERE

CITY           SKY/WX    TMP DP  RH WIND       PRES   REMARKS
HARRISBURG PA  PTSUNNY   34  17  50 W13       30.40F WCI  25
BALTIMORE      MOSUNNY   35  15  44 W15       30.45F
ANNAPOLIS      SUNNY     37  17  44 NW10      30.46F
ANDREWS AFB    SUNNY     35  12  38 NW15      30.45F
PHILADELPHIA   MOSUNNY   35  15  44 NW14      30.42F
HENDERSON NC   SUNNY     32  12  42 W5        30.51F
GREENSBORO     SUNNY     36  13  38 VRB7      30.49F
ROCKY MOUNT    SUNNY     37  16  42 CALM      30.53F
$$

VAZ100-101800-
MARINE

STATION/POSITION TIME  TEMP    WIND        PRES    WAVE   SWELL
                       AIR SEA DIR/SP/G            HT/PER HT/PER
                 (UTC) (F)     (DEG/KT/KT) (MB)    (FT/S) (FT/S)
BRANDYWINE LGT   1636   33     320/ 11/ 16   N/A
CAPE MAY NJ      1636   35 39  320/ 12/ 16 1030.6F
LEWES DE         1636   34 43  330/ 11/ 14 1031.0F
OCEAN-CITY-INLET 1636   35 45  360/  5/  7 1031.7F
WACHAPREAGUE VA  1636   37 39  360/  5/ 10 1031.9F
THOMAS POINT MD  1700   34 45  300/ 14/ 16   N/A
GOOSES REEF MD   1700   36 47  290/ 10/ 16 1032.2    1/ 3
COVE POINT MD    1636   34     340/  5/ 11 1032.4F
SOLOMONS ISLAND  1636   35 48  330/  7/ 12   N/A
BISHOPS HEAD MD  1636   34 37  280/ 11/ 12 1032.2F
PINEY POINT MD   1648          310/ 11/ 13   N/A
POTOMAC MD       1700   35 48  300/ 12/ 16 1031.3    1/ 3
CAMBRIDGE MD     1636   34 42  310/  9/ 14 1031.1F
LEWISETTA VA     1636   34 42  330/  7/ 11 1032.0F
RAPPAHANNOCK LGT 1648          310/  7/  9 1032.6F
STINGRAY PT      1650   35     290/  6/ 12 1032.8F
YORK RVR RNG VA  1636   35     350/  6/  7 1032.1F
YORKTOWN VA      1636   35 48  300/  7/ 10 1032.4F
JAMESTOWN VA     1700   34 48  280/  8/ 10   N/A     0
DOMINION TERM VA 1648   35     320/  7/  9 1032.7F
KIPTOPEKE VA     1648      47  340/ 10/ 12   N/A
CHES BAY BRIDGE  1648   36 49  320/  6/ 10 1032.4F
CAPE HENRY VA    1648   35     310/  7/ 10   N/A
WILLOUBY STN VA  1648   36     230/  5/  7 1033.3F
S CRANEY ISL VA  1648   36     300/  4/  8 1032.5F
CAPE HENRY BUOY  1642      53                N/A     2/ 5
1ST LANDING BUOY 1700   35 49              1032.5    1/ 3
CAPE CHARLES BUO 1656      51                N/A     2/ 4
OFFSHORE WE BUOY 1651      54                N/A     3/ 6
64NM E OF VA BCH 1650   40 58  320/ 10/ 16 1031.3F   4/ 6   3/ 6
DUCK PIER NC     1648   37 51  300/  9/ 11 1031.9F
44100 DUCK FRF   1635      55                N/A     4/ 6
OREGON INLET NC  1642   39 49  290/  7/ 10 1032.3F
HATTERAS NC      1648   39 51  340/  8/ 10 1032.1F
DIAMOND SHLS NC  1650   42 77  330/ 12/ 17 1032.3F   5/ 9   5/ 9
CAPE LOOKOUT NC  1700   40     350/  5/  8 1032.4F
$$




USA.gov is the U.S. government's official web portal to all federal, state and local government web resources and services.